Wind_Speed
7 7 8 8 8 7 6 7 7 8 8 9 10 11 11 12 12 12 13 13 12 12 13 12 12 12 11 11 10 10 10 9 9 8 8 7 6 6 6 6 6 6 5
7 6 7 7 7 7 6 6 8 9 9 10 11 11 11 12 12 12 12 12 12 12 13 12 12 12 11 11 10 10 10 9 9 8 8 7 7 7 7 6 6 5 5
7 6 6 6 6 6 7 7 8 9 10 11 11 11 11 11 11 12 12 12 12 13 13 12 12 12 11 11 10 10 9 9 9 8 8 7 7 7 7 6 5 5 5
7 6 6 6 6 7 8 8 8 9 9 10 11 11 11 12 11 11 12 12 12 13 13 12 12 12 11 11 10 10 9 9 8 8 8 7 7 6 6 6 5 4 4
6 6 6 6 6 6 7 9 8 9 9 10 10 10 11 11 11 11 12 12 12 12 12 12 11 11 11 10 10 9 9 9 9 8 7 7 6 6 5 5 4 4 3
6 6 6 6 7 7 7 9 9 8 9 9 10 10 10 11 11 12 11 11 11 11 11 11 11 10 10 10 10 9 9 9 8 7 7 6 5 5 5 4 3 3 3
6 6 6 7 7 7 7 9 9 9 9 10 10 9 10 10 11 11 11 11 11 10 10 10 9 9 9 9 9 8 8 8 7 7 6 6 5 5 4 4 3 2 2
8 8 7 7 7 7 7 8 9 9 9 9 9 9 9 10 10 10 10 10 10 9 9 9 8 8 8 8 8 7 7 8 7 7 6 5 5 5 4 4 3 3 2
9 8 8 7 7 6 7 8 8 9 9 8 8 8 9 9 9 9 10 10 9 8 8 7 8 8 7 7 7 7 6 6 6 6 6 5 5 4 4 4 4 3 2
10 9 8 8 7 7 7 7 8 8 8 8 8 8 8 9 9 9 9 9 8 7 7 6 6 7 6 6 6 6 5 5 5 5 4 5 5 4 4 4 4 3 2
11 10 9 8 7 7 7 7 7 7 8 7 7 7 8 8 8 8 7 7 6 6 6 6 6 6 6 5 5 5 4 4 4 4 4 4 4 4 3 3 3 3 2
12 11 10 9 8 8 7 7 7 7 7 6 7 7 7 7 7 7 6 6 5 5 5 6 5 5 5 4 4 3 3 2 3 3 3 3 4 3 2 2 3 3 3
13 12 11 10 9 8 8 7 7 7 7 6 6 6 6 6 6 5 5 5 5 5 5 4 4 3 3 2 2 2 1 1 2 2 3 3 3 2 2 2 2 3 3
13 12 11 10 10 9 8 7 7 7 7 6 6 5 5 5 5 4 4 4 4 4 3 3 2 2 2 1 1 0 1 2 2 2 3 3 3 3 3 2 3 3 3
14 13 12 11 10 9 8 7 7 6 6 6 6 5 5 4 4 4 3 3 3 3 2 2 2 2 2 2 2 2 2 3 3 2 3 3 3 3 4 4 4 4 4
14 13 13 12 11 10 9 7 7 6 6 6 6 5 4 4 3 3 3 2 2 2 1 1 1 2 2 3 3 4 4 4 4 3 3 3 3 3 4 5 4 4 5
14 13 14 13 12 10 10 9 7 6 6 5 5 5 4 3 3 3 2 2 1 1 1 1 0 1 2 3 3 4 4 4 4 4 4 4 4 4 5 5 6 6 6
15 14 13 13 12 11 10 9 8 6 6 6 5 5 5 4 4 3 2 2 2 1 1 2 3 2 2 2 3 4 4 5 5 5 5 5 6 5 6 7 7 7 7
16 15 14 13 12 12 11 10 9 8 7 6 6 6 6 5 5 4 4 3 3 3 2 2 3 3 3 3 4 5 6 6 6 6 6 6 6 6 7 8 8 8 8
16 15 15 13 12 12 11 10 9 8 8 7 6 6 6 5 5 5 5 5 4 4 3 3 4 4 4 5 5 6 6 6 7 7 7 7 7 8 9 9 9 9 9
15 15 15 15 13 13 12 11 10 9 9 7 6 6 5 5 5 6 6 6 6 5 5 5 5 5 5 6 6 6 7 7 7 8 8 8 9 10 11 11 11 11 11
15 15 15 14 14 14 13 12 11 10 9 9 7 7 5 5 6 7 7 7 6 6 6 6 7 6 7 7 7 7 8 8 9 9 9 10 11 11 12 12 12 13 13
15 15 15 15 15 14 14 14 13 11 11 10 9 8 7 6 7 7 7 7 7 7 7 7 7 7 8 8 9 9 9 10 10 11 11 12 12 13 13 13 14 15 14
14 14 14 14 15 14 14 15 14 13 12 11 10 9 9 8 8 8 8 7 8 8 8 8 8 8 9 9 10 10 11 11 11 12 13 13 13 14 14 14 15 15 15
13 14 14 15 14 14 14 14 14 13 13 12 11 11 10 10 10 9 9 8 8 9 9 9 10 10 10 10 11 11 12 12 12 13 13 14 14 15 14 14 15 15 16
12 13 14 14 14 14 14 15 14 13 13 13 12 12 11 11 11 10 10 9 9 9 10 10 11 11 12 12 11 11 12 13 13 14 14 14 15 15 15 15 16 16 16
Wind_Direction
69 67 73 84 84 84 86 96 102 103 104 107 111 113 117 118 116 114 113 112 110 109 107 108 108 106 105 106 106 106 107 108 105 105 105 107 108 109 104 101 96 99 95
67 66 68 73 78 86 92 103 107 108 106 107 107 107 110 114 115 115 113 111 109 108 106 106 106 105 104 105 106 105 104 102 102 102 101 101 101 99 96 97 96 97 92
70 68 68 67 70 84 95 104 112 107 107 108 106 105 105 110 113 114 113 111 108 108 107 107 106 107 107 106 105 102 99 97 96 100 99 94 94 95 96 96 95 94 89
75 75 74 73 78 85 93 103 108 108 110 111 109 108 103 106 110 109 112 112 112 110 108 108 106 107 106 104 103 99 95 92 94 97 96 92 93 94 94 93 91 90 91
74 76 79 79 81 81 88 94 104 109 113 113 108 105 103 109 112 112 113 114 115 114 112 108 107 106 105 102 99 96 93 91 89 90 90 90 89 88 88 89 88 87 89
75 77 80 82 88 82 85 91 103 106 110 112 110 106 104 109 111 114 114 114 113 111 109 109 108 107 105 103 99 96 94 90 87 86 86 86 84 82 79 79 81 82 91
74 77 80 84 85 84 87 90 101 105 105 109 107 106 108 109 111 112 113 114 113 113 111 109 108 108 107 105 103 99 94 90 86 84 80 78 77 75 71 70 68 71 71
72 78 82 84 85 86 89 91 96 103 106 107 106 106 105 105 106 108 109 113 114 114 111 106 109 108 109 109 106 102 96 90 86 82 78 75 73 71 66 65 64 58 47
69 77 83 86 86 88 88 89 93 98 98 104 106 104 103 107 105 107 108 111 113 114 110 108 110 112 114 113 110 105 100 92 84 79 73 66 61 58 56 56 54 46 38
65 70 80 86 90 90 91 92 93 94 96 98 103 103 102 103 103 105 105 109 112 113 111 111 112 114 115 117 111 106 100 89 79 72 64 56 51 51 51 48 49 46 33
65 72 76 85 91 93 94 99 98 96 94 91 91 97 96 98 100 100 102 105 109 110 111 112 112 115 115 116 110 104 97 87 74 66 55 46 40 44 53 51 51 46 31
63 68 72 79 85 89 94 104 100 97 98 96 95 98 100 97 99 101 102 102 105 108 115 119 114 113 115 116 111 99 89 83 64 48 41 41 37 45 54 50 34 21 14
60 64 69 73 79 85 88 99 104 100 99 98 95 96 97 95 89 100 96 98 106 115 127 125 124 115 125 118 114 102 83 66 39 23 18 17 14 15 17 12 7 10 5
58 61 64 66 73 80 83 87 100 100 94 92 94 95 94 92 89 88 95 105 114 125 145 149 154 161 169 175 199 219 311 340 355 355 355 349 345 340 350 344 343 343 349
56 57 59 62 67 73 82 84 93 97 92 87 84 82 87 88 86 81 70 90 116 136 149 169 184 209 220 226 250 273 293 307 312 320 326 330 335 342 339 337 331 320 320
53 54 55 58 64 68 71 75 79 87 87 80 76 72 71 72 74 66 59 56 73 109 140 183 190 222 247 256 263 273 290 299 299 311 322 329 326 326 322 321 325 315 309
52 53 54 54 57 62 64 63 67 74 74 63 61 59 51 53 50 43 22 21 10 32 341 313 313 260 263 271 279 282 293 301 298 301 303 304 308 315 317 312 310 311 311
50 51 52 50 52 57 58 56 57 60 56 49 41 39 36 31 27 24 359 354 346 2 335 325 329 333 321 302 302 299 301 304 303 298 299 297 299 303 309 310 306 305 305
45 45 46 46 46 46 49 50 48 47 42 39 34 31 30 26 20 19 5 350 347 349 345 330 321 310 307 311 316 315 304 296 299 299 305 303 296 297 301 304 301 299 298
42 42 42 43 43 40 40 42 39 37 33 28 27 22 26 23 14 5 360 348 339 337 331 323 318 306 297 304 310 313 310 299 297 295 298 301 301 296 297 298 295 294 295
40 40 41 42 41 38 35 33 31 26 24 23 24 14 18 14 1 356 350 344 343 337 328 316 313 308 303 298 300 305 305 301 300 297 296 295 295 294 295 294 292 295 296
37 37 37 35 34 34 31 29 26 21 18 18 16 12 10 2 352 345 344 341 338 330 328 320 314 309 302 298 294 293 297 299 300 301 303 302 298 295 294 295 295 296 296
33 32 32 30 30 31 28 26 24 22 20 17 12 10 7 351 344 344 338 334 331 326 325 318 317 314 305 301 298 295 295 295 300 302 302 300 299 297 296 296 297 297 295
27 26 26 25 25 25 25 23 21 21 16 13 10 5 359 353 345 337 332 327 322 318 319 316 311 309 304 301 301 298 296 298 300 302 301 299 297 299 297 295 295 296 294
22 22 22 21 20 18 17 17 15 14 11 8 6 4 358 355 347 340 331 326 318 314 310 308 306 300 299 300 300 298 296 299 303 304 303 301 299 299 297 297 297 296 293
17 18 16 15 15 15 13 11 9 7 7 3 0 359 355 352 347 343 336 331 323 316 309 305 304 299 298 297 299 300 299 299 302 305 305 304 303 301 299 297 296 296 295
Height
5871 5870 5869 5869 5868 5868 5868 5868 5868 5868 5868 5868 5868 5869 5869 5870 5871 5872 5872 5874 5875 5876 5876 5878 5879 5879 5880 5881 5881 5882 5883 5884 5884 5885 5885 5886 5886 5887 5888 5888 5888 5889 5889
5872 5872 5871 5871 5870 5870 5870 5870 5870 5870 5870 5870 5870 5870 5871 5872 5873 5874 5875 5876 5877 5878 5878 5880 5880 5881 5882 5883 5883 5884 5885 5885 5886 5886 5887 5887 5888 5888 5889 5889 5890 5890 5890
5874 5874 5873 5873 5873 5872 5872 5872 5872 5872 5872 5872 5873 5873 5874 5874 5875 5876 5877 5878 5879 5880 5881 5882 5882 5883 5884 5885 5885 5886 5886 5887 5887 5888 5888 5889 5889 5890 5890 5890 5891 5891 5891
5876 5876 5875 5875 5875 5875 5874 5874 5874 5874 5874 5875 5875 5875 5876 5876 5877 5878 5879 5880 5882 5882 5883 5884 5885 5885 5886 5887 5887 5888 5888 5888 5889 5889 5890 5890 5891 5891 5891 5891 5892 5892 5893
5877 5877 5877 5877 5877 5876 5876 5876 5876 5876 5876 5877 5877 5878 5878 5879 5880 5881 5882 5882 5883 5884 5885 5886 5886 5887 5888 5888 5889 5889 5890 5890 5891 5891 5891 5892 5892 5892 5892 5892 5893 5893 5893
5879 5879 5879 5879 5878 5878 5878 5878 5878 5878 5878 5879 5879 5880 5880 5881 5882 5883 5883 5884 5885 5886 5887 5887 5888 5889 5889 5890 5890 5891 5891 5892 5892 5892 5893 5893 5893 5893 5893 5893 5894 5894 5894
5880 5880 5880 5880 5880 5881 5880 5880 5880 5880 5881 5881 5881 5882 5882 5883 5884 5884 5885 5886 5887 5888 5889 5889 5890 5890 5891 5891 5892 5892 5893 5893 5893 5894 5894 5894 5894 5894 5894 5894 5895 5895 5895
5882 5882 5882 5882 5882 5882 5882 5882 5882 5882 5883 5883 5884 5884 5884 5885 5886 5886 5887 5888 5889 5890 5891 5891 5892 5892 5893 5893 5894 5894 5894 5894 5895 5895 5895 5895 5895 5895 5895 5895 5895 5895 5895
5884 5884 5884 5884 5884 5884 5884 5884 5885 5885 5885 5886 5886 5886 5887 5887 5888 5888 5889 5890 5891 5892 5892 5893 5893 5894 5894 5895 5895 5895 5896 5895 5895 5896 5896 5896 5896 5896 5896 5896 5896 5896 5896
5886 5886 5885 5885 5886 5886 5886 5887 5887 5887 5888 5888 5888 5889 5889 5889 5890 5890 5890 5891 5892 5893 5894 5894 5895 5895 5896 5896 5896 5897 5897 5896 5896 5897 5897 5897 5896 5896 5896 5896 5897 5897 5896
5889 5888 5888 5888 5888 5888 5889 5889 5889 5890 5890 5890 5891 5891 5891 5892 5892 5892 5892 5893 5894 5894 5895 5895 5896 5896 5897 5897 5898 5898 5898 5898 5898 5898 5897 5897 5897 5897 5897 5897 5897 5897 5897
5891 5891 5891 5890 5890 5891 5891 5891 5892 5892 5892 5892 5893 5893 5893 5894 5894 5894 5894 5895 5895 5896 5896 5897 5897 5897 5898 5898 5898 5899 5899 5899 5899 5899 5898 5898 5898 5898 5898 5898 5898 5898 5897
5894 5894 5893 5893 5893 5893 5893 5893 5894 5894 5894 5894 5894 5895 5895 5895 5895 5895 5896 5896 5896 5897 5897 5898 5898 5899 5899 5899 5899 5900 5900 5900 5900 5899 5899 5899 5898 5898 5898 5898 5898 5898 5898
5897 5896 5896 5895 5895 5895 5895 5895 5895 5896 5896 5896 5896 5896 5896 5897 5897 5897 5897 5897 5897 5898 5898 5898 5899 5899 5899 5900 5900 5900 5900 5900 5900 5899 5899 5899 5898 5898 5898 5898 5898 5897 5897
5900 5899 5898 5898 5897 5897 5897 5897 5897 5897 5898 5898 5898 5898 5898 5898 5898 5898 5898 5898 5898 5899 5899 5899 5899 5899 5899 5900 5900 5900 5900 5900 5900 5899 5899 5899 5898 5898 5898 5898 5897 5897 5897
5903 5902 5901 5900 5900 5899 5899 5899 5899 5899 5899 5899 5899 5899 5899 5899 5899 5899 5899 5899 5899 5899 5899 5899 5899 5899 5899 5899 5899 5899 5899 5899 5899 5899 5899 5898 5898 5898 5898 5897 5897 5896 5896
5906 5905 5904 5903 5902 5902 5902 5901 5901 5901 5901 5901 5900 5900 5900 5900 5900 5900 5899 5899 5900 5900 5900 5900 5899 5899 5899 5899 5899 5899 5899 5899 5899 5898 5898 5898 5897 5897 5897 5896 5896 5895 5895
5909 5907 5907 5906 5905 5904 5904 5903 5903 5902 5902 5902 5902 5901 5901 5900 5900 5900 5900 5900 5899 5899 5900 5899 5899 5899 5899 5899 5898 5898 5898 5898 5898 5897 5897 5897 5896 5896 5896 5895 5895 5894 5894
5911 5910 5909 5908 5907 5907 5906 5905 5904 5904 5903 5903 5902 5902 5901 5901 5900 5900 5900 5900 5899 5900 5900 5899 5899 5899 5899 5898 5898 5898 5897 5897 5896 5896 5896 5895 5895 5895 5895 5894 5893 5893 5892
5914 5913 5912 5911 5910 5909 5908 5907 5906 5905 5905 5904 5903 5903 5902 5901 5901 5901 5900 5900 5900 5900 5899 5899 5899 5898 5898 5898 5897 5897 5896 5896 5895 5895 5894 5894 5894 5893 5893 5892 5892 5891 5890
5917 5916 5914 5913 5912 5911 5910 5909 5908 5907 5906 5905 5904 5903 5902 5902 5901 5900 5900 5900 5900 5899 5898 5898 5898 5897 5897 5896 5896 5896 5895 5894 5894 5893 5893 5892 5892 5891 5891 5890 5889 5889 5888
5920 5918 5917 5915 5914 5912 5911 5910 5909 5908 5906 5905 5904 5903 5902 5902 5902 5901 5901 5900 5899 5899 5898 5897 5897 5896 5896 5895 5895 5894 5894 5893 5892 5891 5891 5890 5889 5889 5888 5887 5887 5886 5885
5922 5920 5918 5917 5916 5914 5913 5911 5910 5909 5907 5906 5905 5904 5903 5902 5901 5901 5900 5899 5898 5898 5897 5896 5896 5895 5894 5894 5893 5892 5892 5891 5890 5889 5888 5888 5887 5886 5885 5884 5883 5883 5881
5924 5922 5920 5919 5917 5916 5914 5913 5911 5910 5908 5907 5906 5904 5903 5902 5901 5900 5899 5897 5897 5897 5896 5895 5895 5894 5893 5892 5891 5890 5890 5889 5888 5887 5886 5885 5884 5883 5882 5881 5880 5879 5877
5925 5923 5922 5920 5919 5917 5915 5914 5912 5910 5909 5907 5906 5904 5903 5902 5900 5899 5898 5896 5896 5896 5895 5894 5893 5892 5891 5890 5889 5889 5887 5886 5885 5885 5883 5882 5881 5880 5878 5877 5876 5875 5874
5926 5924 5923 5921 5920 5918 5916 5914 5913 5911 5909 5908 5906 5905 5903 5901 5900 5898 5897 5896 5895 5894 5893 5892 5891 5890 5889 5888 5887 5886 5885 5884 5883 5882 5880 5879 5878 5876 5875 5873 5872 5871 5870